Weather Service Report


950 
ASUS44 KOUN 011110
RWROK 

WEATHER ROUNDUP FOR OKLAHOMA
NATIONAL WEATHER SERVICE NORMAN OK
600 AM CDT SAT NOV 01 2014

NOTE: "FAIR" INDICATES FEW OR NO CLOUDS BELOW 12,000 FEET WITH NO
      SIGNIFICANT WEATHER AND/OR OBSTRUCTIONS TO VISIBILITY.

OKZ001>007-009>012-014-015-017-011200-
NORTHWEST OKLAHOMA AND THE PANHANDLE
  
CITY           SKY/WX    TMP DP  RH WIND       PRES   REMARKS
GAGE           CLEAR     36  20  52 S12       30.32S WCI  28          
ENID/WOODRING    N/A     32  27  80 SE7       30.40S WCI  26          
$$

OKZ016-021>023-033>039-044-045-011200-
SOUTHWEST OKLAHOMA
  
CITY           SKY/WX    TMP DP  RH WIND       PRES   REMARKS
LAWTON/REGL    CLEAR     34  23  64 NE5       30.40R WCI  30          
LAWTON/FT SILL CLEAR     35  23  62 NE5       30.39R WCI  30          
FREDERICK      PTCLDY    36  25  64 E8        30.36R WCI  30          
CLINTON        CLOUDY    38  21  50 SE14      30.37S WCI  30          
HOBART         CLEAR     33  24  69 E6        30.37S WCI  28          
ALTUS AFB      CLEAR     33  24  69 SE6       30.38R WCI  28          
$$

OKZ018>020-024>031-011200-
CENTRAL OKLAHOMA
  
CITY           SKY/WX    TMP DP  RH WIND       PRES   REMARKS
OKLAHOMA CITY  PTCLDY    36  20  52 E9        30.40S WCI  29          
OKC/WILEY POST CLEAR     36  21  54 E8        30.41S WCI  30          
OKC/TINKER AFB PTCLDY    32  22  64 E9        30.40S WCI  25          
STILLWATER     CLEAR     30  23  75 E7        30.42S WCI  23          
GUTHRIE        PTCLDY    32  23  69 E5        30.41S WCI  27          
$$

OKZ008-013-054>072-011200-
NORTHEAST OKLAHOMA
  
CITY           SKY/WX    TMP DP  RH WIND       PRES   REMARKS
TULSA          PTCLDY    28  24  85 NW6       30.46R WCI  22          
TULSA/JONES    CLEAR     31  24  75 N6        30.46R WCI  25          
PONCA CITY     CLEAR     34  20  56 SE10      30.41F WCI  26          
BARTLESVILLE   PTCLDY    22  20  92 CALM      30.48R                  
MUSKOGEE       CLEAR     29  24  82 NE6       30.47R WCI  23          
$$

OKZ032-040>043-046>053-073>077-011200-
SOUTH CENTRAL/SOUTHEAST OKLAHOMA
  
CITY           SKY/WX    TMP DP  RH WIND       PRES   REMARKS
ARDMORE/DWNTWN PTCLDY    34  27  75 NE3       30.41R                  
MCALESTER      CLEAR     34  25  69 CALM      30.43R                  
$$


Return to Home page


Western Regional Climate Center, wrcc@dri.edu